Home > Weather > Strathcona County > Past weeks

Flag for Canada Past Weather in Strathcona County, Alberta, Canada — Yesterday and Last 2 Weeks

Now
59 °F

Cool.


Feels Like: 58 °F
Forecast: 58 / 70 °F
Wind: 6 mph from East

Location: Edmonton Municipal

Current Time: Jul 2, 2016 at 3:41:28 AM

Latest Report: Jul 2, 2016 at 3:00 AM


Visibility: N/A

Pressure: 29.90 "Hg (27.43 "Hg at 728m altitude)

Humidity: 94%

Dew Point: 57 °F

Location of Strathcona CountyLocation

Past Weather in Strathcona County — Graph

°F

Strathcona County Temperature Yesterday

Maximum temperature yesterday: 75 °F (at 5:00 PM)
Minimum temperature yesterday: 54 °F (at 6:00 AM)
Average temperature yesterday: 66 °F

High & Low Weather Summary for the Past Weeks

 TemperatureHumidityPressure
High83 °F (Jun 28, 2:00 PM)96% (Jun 30, 4:00 PM)30.23 "Hg (Jun 30, 4:00 PM)
Low47 °F (Jun 17, 7:00 AM)21% (Jun 19, 4:00 PM)29.75 "Hg (Jun 24, 3:00 AM)
Average64 °F61%30.00 "Hg
* Reported Jun 17 2:00 AM — Jul 2 2:00 AM, Strathcona County, Weather by CustomWeather, © 2016

Note: Actual official high and low records may vary slightly from our data, if they occured in-between our weather recording intervals... More about our weather records

Advertising

Strathcona County Weather History for the Previous 24 Hours

Scroll right to see more
 ConditionsComfort  
Time TempWeatherWind HumidityBarometerVisibility
2:00 AM
Sat, Jul 2
59 °FCool.3 mph92%29.91 "HgN/A
1:00 AM61 °FCool.5 mph89%29.91 "HgN/A
12:00 AM62 °FCool.9 mph90%29.91 "HgN/A
11:00 PM
Fri, Jul 1
65 °FMild.8 mph84%29.90 "HgN/A
10:00 PM68 °FMild.10 mph67%29.89 "HgN/A
9:00 PM69 °FMild.9 mph66%29.88 "HgN/A
8:00 PM71 °FMild.10 mph60%29.89 "HgN/A
7:00 PM74 °FMild.8 mph54%29.89 "HgN/A
6:00 PM74 °FMild.7 mph48%29.90 "HgN/A
5:00 PM75 °FMild.7 mph46%29.90 "HgN/A
4:00 PM73 °FMild.9 mph49%29.91 "HgN/A
3:00 PM75 °FMild.6 mph52%29.92 "HgN/A
2:00 PM72 °FMild.5 mph53%29.93 "HgN/A
1:00 PM72 °FMild.6 mph55%29.93 "HgN/A
12:00 PM73 °FMild.2 mph50%29.94 "HgN/A
11:00 AM71 °FMild.1 mph55%29.95 "HgN/A
10:00 AM67 °FMild.2 mph63%29.97 "HgN/A
9:00 AM65 °FMild.1 mph65%29.97 "HgN/A
8:00 AM60 °FCool.2 mph79%29.98 "HgN/A
7:00 AM57 °FCool.5 mph88%29.99 "HgN/A
6:00 AM54 °FCool.3 mph94%29.99 "HgN/A
5:00 AM54 °FCool.3 mph93%30.00 "HgN/A
4:00 AM55 °FCool.5 mph90%29.99 "HgN/A
3:00 AM57 °FCool.5 mph89%30.00 "HgN/A
Weather by CustomWeather, © 2016

See weather overviewHow to use our weather pages